Location: Nakusp
(50.2330°N, 117.8000°W)
Time: 16:06:51
(UTC-08:00)

Daily predictions for brighter satellites

Satellite Brightness Start Highest point End
(mag) Time Altitude Azimuth Time Altitude Azimuth Time Altitude Azimuth
NOSS 2-1 (C) 3.3 16:55:58 10° SW 16:59:41 83° SE 17:04:04 10° NE
Meteor 1-24 Rocket 4.4 16:54:00 10° SSW 16:59:45 65° WNW 17:05:43 10° N
Cosmos 1777 Rocket 4.4 16:54:47 10° NNW 16:59:47 42° ENE 17:04:46 10° SE
Cosmos 2366 rocket 4.4 16:54:16 10° N 17:00:11 42° ENE 17:06:01 10° SE
NOSS 2-1 (D) 3.3 16:56:39 10° SW 17:00:22 85° SE 17:04:45 10° NE
Cosmos 1726 2.0 16:57:28 10° N 17:01:09 76° E 17:04:48 10° SSE
Nadezhda 1 Rocket 4.3 16:57:28 10° SSW 17:03:44 75° W 17:10:08 10° N
IRAS Rocket 4.3 16:58:41 10° SSE 17:04:12 68° ENE 17:09:47 10° NNW
SL-14 R/B 4.1 17:00:43 10° SSE 17:04:15 31° E 17:07:44 10° NNE
SOZ 4.4 17:01:35 10° W 17:04:23 53° N 17:06:19 10° ENE
Cosmos 1484 Rocket 2.8 17:03:06 10° SSE 17:06:53 86° W 17:10:38 10° NNW
Meteor 1-28 Rocket 3.6 17:03:23 10° NNE 17:07:04 44° E 17:10:43 10° S
Cosmos 1980 Rocket 4.1 17:05:53 10° N 17:07:33 11° NNE 17:09:13 10° NE
Cosmos 1992 Rocket 4.0 17:03:37 10° SSW 17:08:48 78° ESE 17:14:02 10° NNE
FENGYUN 3A 4.2 17:03:58 10° SE 17:08:49 36° ENE 17:13:41 10° N
Okean 3 Rocket 4.0 17:05:18 10° SSE 17:09:34 43° E 17:13:51 10° NNE
SPOT 3 Rocket 4.2 17:06:46 10° ESE 17:11:15 31° ENE 17:15:46 10° N
Cosmos 968 Rocket 3.8 17:09:56 10° NNW 17:15:05 72° WSW 17:20:11 10° SSE
Meteor 2-10 4.0 17:10:56 10° NNW 17:16:00 89° ENE 17:21:07 10° S
YAOGAN 1 2.7 17:13:24 10° SSE 17:17:37 54° ENE 17:21:51 10° N
Meteor 2-16 Rocket 4.4 17:11:29 10° N 17:17:37 81° E 17:23:45 10° SSE
Geosat 4.5 17:12:50 10° NE 17:17:39 43° ESE 17:22:24 10° S
ATLAS 5 CENTAUR R/B 3.7 17:13:52 10° NW 17:17:44 21° N 17:21:57 10° NE
METEOR-M 4.1 17:14:20 10° SSE 17:19:36 64° ENE 17:24:55 10° N
ALOS 2.7 17:15:28 10° SE 17:19:48 40° ENE 17:24:10 10° N
Cosmos 2221 2.8 17:15:34 10° NNW 17:19:57 76° W 17:24:20 10° S
Cosmos 2333 Rocket 4.4 17:17:08 10° NW 17:20:02 14° NNW 17:22:56 10° N
KORONAS-FOTON 4.1 17:23:17 10° SSW 17:27:03 68° WNW 17:30:51 10° N
Cosmos 2341 Rocket 4.4 17:22:26 10° NNW 17:28:40 69° W 17:34:55 10° S
NOSS 2-1 (E) 3.7 17:24:57 10° SW 17:28:43 65° NW 17:33:18 10° NE
Cosmos 1346 Rocket 3.2 17:26:13 10° N 17:29:55 38° ENE 17:33:34 10° SE
CZ-4 R/B 1.6 17:25:41 10° SSE 17:29:56 85° W 17:34:12 10° NNW
TELKOM 3 2.6 17:29:10 10° W 17:31:17 85° S 17:32:47 18° E
SeaSat 1 4.1 17:29:04 10° S 17:33:40 39° WSW 17:38:19 10° NW
H-2A R/B 3.8 17:31:31 10° ESE 17:34:37 24° ENE 17:37:45 10° N
Cosmos 1455 3.2 17:31:23 10° NNE 17:34:41 26° ENE 17:37:56 10° SE
RESURS DK-1 4.0 17:32:36 10° N 17:35:25 17° NE 17:36:47 15° ENE
SL-16 R/B 4.1 17:34:06 10° W 17:38:29 22° NW 17:42:54 10° NNE
TSX-5 4.0 17:36:39 10° S 17:39:42 38° ESE 17:42:17 16° NE
Cosmos 1315 Rocket 2.9 17:36:14 10° S 17:40:02 51° E 17:43:52 10° NNE
Cosmos 2151 4.2 17:36:53 10° SE 17:40:04 21° E 17:42:19 14° NE
COSMOS 2406 4.2 17:37:14 10° SSE 17:41:51 26° ESE 17:45:15 15° ENE
Cosmos 2098 Rocket 3.9 17:37:09 10° N 17:42:08 49° ENE 17:48:18 10° SSE
CZ-2C R/B 3.8 17:39:03 10° NNE 17:43:47 64° ESE 17:48:23 10° S
NOSS 3-4 (A) 4.0 17:36:56 10° NW 17:43:53 76° SW 17:51:20 10° SSE
NOSS 3-4 (C) 4.0 17:37:03 10° NW 17:43:59 77° SW 17:51:27 10° SSE
Cosmos 1515 Rocket 4.1 17:40:12 10° N 17:44:11 34° ENE 17:48:09 10° SE
Cosmos 1408 Rocket 3.7 17:43:44 10° SSE 17:47:53 49° E 17:52:03 10° NNE
Cosmos 1943 3.7 17:42:21 10° SW 17:47:54 59° NW 17:53:29 10° NNE
USA 161 4.1 17:50:08 10° NW 17:50:58 11° WNW 17:51:45 10° W
Cosmos 1626 2.3 17:49:23 10° S 17:52:58 48° E 17:56:34 10° NNE
Cosmos 1076 Rocket 3.7 17:49:42 10° SSW 17:54:05 75° WNW 17:58:28 10° N
Cosmos 1697 Rocket 3.9 17:50:03 10° NNW 17:54:20 21° NE 17:56:00 19° ENE
NOSS 3-3 (A) 4.4 17:48:36 10° WSW 17:54:47 64° NW 18:01:11 12° NE
COSMO-SKYMED 1 2.6 17:50:32 10° NNE 17:54:51 59° E 17:59:08 10° S
NOSS 3-3 (C) 4.4 17:48:42 10° WSW 17:54:54 65° NW 18:01:16 12° NE
Cosmos 2181 Rocket 4.4 17:48:58 10° SSW 17:55:24 72° W 18:01:50 10° N
Envisat 4.1 17:54:07 19° E 17:55:35 22° ENE 17:59:25 10° N
GEOS 3 Rocket 4.0 17:52:24 13° ESE 17:56:56 48° NE 18:02:07 10° NW
FengYun 1-2 T 4.5 17:51:42 10° SE 17:57:02 46° ENE 18:02:20 10° N
PKM 3.5 17:54:28 10° WNW 17:57:11 70° SSW 18:00:37 11° SE
EO 1 Del DPAF 3.8 17:55:14 16° NE 17:57:54 37° E 18:01:28 10° SSE
USA 116 4.1 17:54:19 10° NNE 17:58:35 83° WNW 18:03:23 10° SSW
Resurs 01 Rocket 3.7 18:01:10 12° NNE 18:01:10 12° NNE 18:01:50 10° NNE
Landsat 4 3.8 17:56:27 11° NNE 17:59:54 50° E 18:03:32 10° S
Cosmos 44 3.1 17:56:22 10° SSW 18:00:37 58° SE 18:03:18 22° NE
Cosmos 1500 Rocket 4.4 17:57:42 10° SSE 18:01:33 29° E 18:03:24 22° NE
Cosmos 1328 3.7 17:58:55 10° S 18:02:57 87° E 18:07:01 10° N
Cosmos 371 Rocket 4.2 18:01:10 10° SSE 18:05:15 28° E 18:06:22 25° ENE
Cosmos 1400 Rocket 4.1 18:02:42 10° SW 18:06:36 42° WNW 18:10:34 10° N
NOAA 12 4.1 18:05:30 10° SSE 18:10:45 86° WSW 18:16:04 10° NNW
Cosmos 2228 Rocket 3.0 18:08:43 10° N 18:13:18 70° ENE 18:17:52 10° SSE
ERS-2 2.0 18:10:43 10° SSE 18:14:23 77° ENE 18:18:06 10° NNW
Cosmos 1328 Rocket 3.5 18:10:08 10° N 18:14:33 89° WSW 18:18:53 10° S
Meteor 2-10 Rocket 4.2 18:10:54 10° N 18:15:18 29° ENE 18:15:29 29° ENE
Cosmos 1743 Rocket 3.7 18:12:18 10° SSE 18:16:29 49° E 18:19:26 18° NNE
Cosmos 2322 Rocket 4.1 18:17:09 10° N 18:19:28 12° NNE 18:19:57 12° NNE
ERBS 2.2 18:17:41 10° WNW 18:21:05 89° SW 18:21:58 47° SE
Cosmos 1340 3.0 18:17:30 10° N 18:20:51 41° ENE 18:20:51 41° ENE
Cosmos 1937 Rocket 4.1 18:17:07 10° NNW 18:21:58 36° NE 18:23:03 32° E
Cosmos 1703 3.2 18:18:14 10° S 18:22:11 68° E 18:24:59 19° NNE
Thor Agena Rocket 4.3 18:24:47 30° ESE 18:24:47 30° ESE 18:28:58 10° SSE
USA 215 3.7 18:26:00 25° ENE 18:29:38 50° N 18:35:53 10° WNW
MTI 4.3 18:29:25 21° N 18:31:23 59° WNW 18:34:32 10° SSW
Cosmos 1766 Rocket 4.4 18:31:34 10° SSW 18:35:46 49° WNW 18:40:00 10° N
SJ-6B 3.7 18:40:23 33° N 18:40:23 33° N 18:42:39 10° N
Cosmos 44 Rocket 3.2 18:35:07 10° SW 18:39:49 85° NW 18:41:35 39° NE
SL-16 R/B 4.0 18:39:10 10° N 18:41:51 15° NNE 18:41:51 15° NNE
SKYMED 2 4.5 18:38:42 10° N 18:42:54 49° WNW 18:47:05 10° SW
Meteor 2-15 Rocket 4.4 18:38:12 10° S 18:44:08 55° E 18:50:05 10° NNE
Cosmos 1151 Rocket 3.3 18:41:35 10° NNW 18:45:57 67° W 18:50:18 10° S
Cosmos 2360 Rocket 4.4 18:48:04 10° N 18:49:24 11° NNE 18:49:24 11° NNE
Cosmos 2150 Rocket 4.3 18:44:42 10° NNW 18:49:13 44° NE 18:49:13 44° NE
Cosmos 1821 Rocket 3.9 18:45:12 10° N 18:51:23 89° W 18:57:37 10° S
Cosmos 2058 3.0 18:47:22 10° SSW 18:51:33 75° W 18:53:46 27° N
Cosmos 1535 Rocket 4.3 18:46:39 10° N 18:52:51 82° E 18:58:58 10° SSE
Cosmos 1980 Rocket 3.2 18:48:37 10° NNW 18:52:41 29° NNE 18:52:41 29° NNE
ALOS 4.3 18:53:18 10° SSW 18:57:21 29° W 19:01:25 10° NNW
Cosmos 332 Rocket 3.7 18:55:35 10° SSW 19:00:30 90° WNW 19:01:35 56° NNE
USA 81 4.1 18:57:51 10° S 19:03:07 75° W 19:08:26 10° N
ATLAS 5 CENTAUR R/B 3.4 18:59:35 10° NW 19:04:04 26° NNE 19:04:04 26° NNE
BREEZE-M DEB (TANK) 3.6 19:03:12 10° WSW 19:04:59 27° WSW 19:04:59 27° WSW
H-2A R/B 4.3 19:05:09 10° SSW 19:08:42 36° W 19:12:19 10° NNW
Cosmos 2208 Rocket 3.9 19:04:22 10° SSW 19:09:22 70° SE 19:09:22 70° SE
Nadezhda 3 Rocket 4.3 19:03:37 10° SSW 19:09:56 69° WNW 19:16:20 10° N
Cosmos 1455 4.2 19:06:59 10° NNW 19:10:21 29° W 19:13:41 10° SSW
Cosmos 1898 Rocket 3.6 19:06:59 10° NNW 19:12:20 77° WSW 19:14:04 43° S
Cosmos 2278 3.5 19:07:09 10° NNW 19:12:55 80° ENE 19:13:26 72° ESE
Lacrosse 5 3.8 19:09:22 10° S 19:10:44 16° S 19:10:44 16° S
RESURS DK-1 3.3 19:09:53 10° NNW 19:12:44 43° NNW 19:12:44 43° NNW
Cosmos 2151 4.0 19:12:57 10° SSW 19:17:05 45° WNW 19:19:00 27° NNW
COSMOS 2406 3.5 19:20:03 10° SW 19:25:44 63° WNW 19:27:22 44° N
Cosmos 990 Rocket 4.1 19:21:32 10° NNW 19:26:23 74° NW 19:26:23 74° NW
Cosmos 1934 Rocket 4.3 19:20:52 10° NNW 19:27:11 69° W 19:33:30 10° S
Cosmos 2369 3.7 19:22:01 10° NNW 19:27:46 78° WSW 19:28:19 71° SSW
CZ-4C R/B 4.0 19:27:04 10° S 19:28:18 17° S 19:28:18 17° S
Cosmos 1605 Rocket 3.9 19:27:50 10° N 19:34:01 85° W 19:34:59 65° S
Envisat 3.2 19:34:18 66° W 19:34:18 66° W 19:39:15 10° NNW
GEOS 3 Rocket 4.4 19:33:32 38° SSW 19:34:58 48° SW 19:40:12 10° NW
Resurs 01 Rocket 3.9 19:38:43 16° NNW 19:38:43 16° NNW 19:39:38 10° NNW
Cosmos 1656 3.8 19:31:47 10° NNW 19:36:49 70° WNW 19:36:49 70° WNW
Cosmos 1697 Rocket 3.1 19:33:31 10° NNW 19:37:47 53° NNW 19:37:47 53° NNW
Cosmos 1570 Rocket 4.5 19:37:34 10° SW 19:42:27 58° W 19:42:27 58° W
Cosmos 371 Rocket 4.3 19:40:52 10° SW 19:45:06 43° WNW 19:45:06 43° WNW
Cosmos 2322 Rocket 4.2 20:00:09 10° NNW 20:01:46 18° N 20:01:46 18° N
USA 215 3.8 20:13:21 51° NNW 20:13:21 51° NNW 20:18:31 10° WNW
SL-16 R/B 4.4 20:22:29 10° NNW 20:23:44 17° NNW 20:23:44 17° NNW
Cosmos 1980 Rocket 4.2 20:32:25 10° NW 20:34:28 23° NW 20:34:28 23° NW
ATLAS 5 CENTAUR R/B 4.4 20:44:10 10° NW 20:45:37 19° NW 20:45:37 19° NW
